Flag for U.S.A. Weather past 2 weeks in Macon, Georgia, U.S.A.

Now
75 °F

Sunny.


Feels Like: 77 °F
Forecast: 63 / 80 °F
Wind: No wind

Location: Middle Georgia Regional Airport

Current Time: Sep 21, 2014 at 8:25:36 PM

Latest Report: Sep 21, 2014 at 7:53 PM


Visibility: 10 mi

Pressure: 29.94 "Hg

Humidity: 66%

Dew point: 63 °F

Location of MaconLocation

Historic Weather in Macon — Graph

°F

Macon temperature yesterday

Maximum temperature yesterday: 84 °F (at 3:53 PM)
Minimum temperature yesterday: 64 °F (at 11:53 PM)
Average temperature yesterday: 72 °F

Past Weeks' High & Low Weather Summary

 TemperatureHumidityPressure
High93 °F (Sep 12, 3:53 PM)100% (Sep 7, 1:53 AM)30.19 "Hg (Sep 7, 1:53 AM)
Low57 °F (Sep 21, 6:53 AM)32% (Sep 21, 3:53 PM)29.84 "Hg (Sep 17, 5:53 PM)
Average76 °F85%30.02 "Hg
* Reported Sep 6 6:53 PM — Sep 21 6:53 PM, Macon, Weather by CustomWeather, © 2014

Note: Actual official high and low records may vary slightly from our data, if they occured in-between our weather recording intervals... More about our weather records

Advertising

Macon weather history for previous 24 hours

 ConditionsComfort  
Time TempWeatherWind HumidityBarometerVisibility
6:53 PM
Sep 21
84 °FSunny.7 mph41%29.93 "Hg10 mi
5:53 PM88 °FSunny.9 mph35%29.93 "Hg10 mi
4:53 PM89 °FPassing clouds.9 mph34%29.93 "Hg10 mi
3:53 PM89 °FSunny.13 mph32%29.93 "Hg10 mi
2:53 PM88 °FSunny.8 mph35%29.95 "Hg10 mi
1:53 PM87 °FSunny.3 mph39%29.98 "Hg10 mi
12:53 PM85 °FSunny.6 mph43%30.01 "Hg10 mi
11:53 AM83 °FSunny.7 mph46%30.04 "Hg10 mi
10:53 AM77 °FSunny.5 mph60%30.05 "Hg10 mi
9:53 AM71 °FSunny.No wind78%30.05 "Hg10 mi
8:53 AM64 °FSunny.3 mph94%30.04 "Hg10 mi
7:53 AM58 °FFog.3 mph100%30.03 "Hg6 mi
6:53 AM57 °FFog.3 mph100%30.00 "Hg6 mi
5:53 AM58 °FClear.No wind100%29.98 "Hg7 mi
4:53 AM59 °FClear.3 mph100%29.98 "Hg9 mi
3:53 AM59 °FClear.3 mph100%29.98 "Hg8 mi
2:53 AM60 °FClear.5 mph100%29.98 "Hg7 mi
1:53 AM60 °FClear.No wind100%29.99 "Hg7 mi
12:53 AM61 °FClear.No wind100%30.00 "Hg9 mi
11:53 PM
Sep 20
64 °FClear.No wind100%30.00 "Hg8 mi
10:53 PM65 °FClear.No wind97%30.01 "Hg10 mi
9:53 PM66 °FClear.No wind93%30.01 "Hg10 mi
8:53 PM71 °FClear.5 mph73%30.00 "Hg10 mi
Weather by CustomWeather, © 2014

See weather overviewHow to use our weather pages